• In India
  • List of Countries
  • For 7 days
  • Water Temperature
  • Satellite Maps
  • Weather Map
  • Weather Widgets
  • user-avatar
    Login

    Hourly Weather Istebna

    Today, 23 November, Thursday

    Time Temperature Precipitation Wind Pressure Humidity
    00:00 +2°C° 0 mm 2 mps 709 mmHg 91%
    01:00 +2°C° 0 mm 2 mps 709 mmHg 91%
    02:00 +2°C° 0 mm 2 mps 709 mmHg 90%
    03:00 +2°C° 0 mm 2 mps 709 mmHg 90%
    04:00 +2°C° 0 mm 2 mps 709 mmHg 89%
    05:00 +2°C° 0 mm 2 mps 709 mmHg 89%
    06:00 +2°C° 0 mm 2 mps 709 mmHg 88%
    07:00 +2°C° 0 mm 1 mps 709 mmHg 88%
    08:00 +2°C° 0 mm 2 mps 709 mmHg 85%
    09:00 +4°C° 0 mm 2 mps 710 mmHg 82%
    10:00 +5°C° 0 mm 2 mps 710 mmHg 79%
    11:00 +6°C° 0 mm 2 mps 710 mmHg 77%
    12:00 +7°C° 0 mm 2 mps 710 mmHg 76%
    13:00 +8°C° 0 mm 2 mps 710 mmHg 77%
    14:00 +7°C° 0 mm 2 mps 710 mmHg 81%
    15:00 +6°C° 0 mm 2 mps 710 mmHg 84%
    16:00 +4°C° 0 mm 2 mps 710 mmHg 88%
    17:00 +4°C° 0 mm 2 mps 710 mmHg 89%
    18:00 +3°C° 0 mm 2 mps 710 mmHg 90%
    19:00 +2°C° 0 mm 2 mps 710 mmHg 91%
    20:00 +2°C° 0 mm 2 mps 710 mmHg 91%
    21:00 +2°C° 0 mm 2 mps 710 mmHg 92%
    22:00 +2°C° 0 mm 2 mps 711 mmHg 92%
    23:00 +2°C° 0 mm 2 mps 711 mmHg 92%

    Tomorrow, 24 November, Friday

    Time Temperature Precipitation Wind Pressure Humidity
    00:00 +3°C° 0 mm 2 mps 711 mmHg 93%
    01:00 +3°C° 0 mm 2 mps 711 mmHg 94%
    02:00 +3°C° 0 mm 2 mps 711 mmHg 93%
    03:00 +3°C° 0 mm 2 mps 711 mmHg 93%
    04:00 +2°C° 0 mm 2 mps 711 mmHg 93%
    05:00 +2°C° 0 mm 2 mps 711 mmHg 93%
    06:00 +2°C° 0 mm 2 mps 711 mmHg 93%
    07:00 +2°C° 0 mm 2 mps 711 mmHg 92%
    08:00 +4°C° 0 mm 2 mps 711 mmHg 90%
    09:00 +5°C° 0 mm 2 mps 712 mmHg 88%
    10:00 +6°C° 0 mm 2 mps 712 mmHg 85%
    11:00 +7°C° 0 mm 2 mps 712 mmHg 84%
    12:00 +8°C° 0 mm 2 mps 712 mmHg 82%
    13:00 +9°C° 0 mm 2 mps 711 mmHg 81%
    14:00 +8°C° 0 mm 2 mps 711 mmHg 84%
    15:00 +6°C° 0 mm 2 mps 711 mmHg 88%
    16:00 +5°C° 0 mm 2 mps 711 mmHg 91%
    17:00 +5°C° 0 mm 2 mps 711 mmHg 92%
    18:00 +5°C° 0 mm 2 mps 711 mmHg 92%
    19:00 +4°C° 0 mm 2 mps 711 mmHg 92%
    20:00 +4°C° 0 mm 2 mps 711 mmHg 92%
    21:00 +4°C° 0 mm 2 mps 711 mmHg 91%
    22:00 +4°C° 0 mm 2 mps 711 mmHg 91%
    23:00 +4°C° 0 mm 2 mps 711 mmHg 91%

    Day after tomorrow, 25 November, Saturday

    Time Temperature Precipitation Wind Pressure Humidity
    00:00 +3°C° 0 mm 2 mps 711 mmHg 91%
    01:00 +3°C° 0 mm 2 mps 711 mmHg 90%
    02:00 +3°C° 0 mm 2 mps 710 mmHg 91%
    03:00 +3°C° 0 mm 2 mps 710 mmHg 91%
    04:00 +3°C° 0 mm 2 mps 710 mmHg 91%
    05:00 +3°C° 0 mm 2 mps 709 mmHg 91%
    06:00 +3°C° 0 mm 2 mps 709 mmHg 91%
    07:00 +3°C° 0 mm 2 mps 708 mmHg 91%
    08:00 +4°C° 0 mm 2 mps 708 mmHg 87%
    09:00 +4°C° 0 mm 3 mps 708 mmHg 84%
    10:00 +5°C° 0 mm 3 mps 707 mmHg 80%
    11:00 +6°C° 0 mm 4 mps 707 mmHg 80%
    12:00 +6°C° 0 mm 4 mps 706 mmHg 79%
    13:00 +7°C° 0 mm 5 mps 705 mmHg 78%
    14:00 +7°C° 0.1 mm 4 mps 705 mmHg 81%
    15:00 +6°C° 0.1 mm 4 mps 705 mmHg 84%
    16:00 +7°C° 0.1 mm 3 mps 704 mmHg 86%
    17:00 +7°C° 0.3 mm 3 mps 704 mmHg 87%
    18:00 +5°C° 0.3 mm 3 mps 704 mmHg 88%
    19:00 +5°C° 0.3 mm 3 mps 704 mmHg 88%
    20:00 +5°C° 0.1 mm 3 mps 705 mmHg 89%
    21:00 +5°C° 0.1 mm 3 mps 705 mmHg 91%
    22:00 +5°C° 0.1 mm 3 mps 706 mmHg 92%
    23:00 +4°C° 0.5 mm 3 mps 706 mmHg 92%

    26 November, Sunday

    Time Temperature Precipitation Wind Pressure Humidity
    00:00 +5°C° 0.5 mm 2 mps 706 mmHg 91%
    01:00 +4°C° 0.5 mm 2 mps 707 mmHg 91%
    02:00 +4°C° 0.6 mm 2 mps 707 mmHg 90%
    03:00 +2°C° 0.6 mm 3 mps 707 mmHg 90%
    04:00 +2°C° 0.6 mm 3 mps 708 mmHg 89%
    05:00 +1°C° 0.4 mm 3 mps 708 mmHg 89%
    06:00 +1°C° 0.4 mm 3 mps 709 mmHg 89%
    07:00 +1°C° 0.4 mm 3 mps 709 mmHg 90%
    08:00 +1°C° 0.2 mm 3 mps 709 mmHg 88%
    09:00 +1°C° 0.2 mm 3 mps 710 mmHg 87%
    10:00 +1°C° 0.2 mm 3 mps 710 mmHg 86%
    11:00 +1°C° 0.1 mm 3 mps 711 mmHg 85%
    12:00 +1°C° 0.1 mm 3 mps 711 mmHg 83%
    13:00 +1°C° 0.1 mm 3 mps 711 mmHg 81%
    14:00 +2°C° 0 mm 2 mps 712 mmHg 83%
    15:00 +1°C° 0 mm 2 mps 712 mmHg 84%
    16:00 +1°C° 0 mm 2 mps 712 mmHg 85%
    17:00 -1°C° 0 mm 2 mps 713 mmHg 87%
    18:00 +1°C° 0 mm 1 mps 713 mmHg 88%
    19:00 0°C° 0 mm 1 mps 713 mmHg 90%
    20:00 0°C° 0 mm 1 mps 713 mmHg 90%
    21:00 0°C° 0 mm 1 mps 714 mmHg 90%
    22:00 0°C° 0 mm 1 mps 714 mmHg 90%
    23:00 -1°C° 0 mm 1 mps 714 mmHg 90%

    27 November, Monday

    Time Temperature Precipitation Wind Pressure Humidity
    00:00 -1°C° 0 mm 1 mps 714 mmHg 90%
    01:00 -1°C° 0 mm 1 mps 714 mmHg 90%
    02:00 -2°C° 0 mm 1 mps 714 mmHg 90%
    03:00 -2°C° 0 mm 1 mps 714 mmHg 90%
    04:00 -2°C° 0 mm 1 mps 714 mmHg 90%
    05:00 -2°C° 0 mm 1 mps 714 mmHg 91%
    06:00 -2°C° 0 mm 1 mps 714 mmHg 91%
    07:00 -3°C° 0 mm 1 mps 715 mmHg 91%
    08:00 -1°C° 0 mm 1 mps 715 mmHg 86%
    09:00 0°C° 0 mm 1 mps 715 mmHg 82%
    10:00 -1°C° 0 mm 2 mps 715 mmHg 78%
    11:00 -1°C° 0 mm 2 mps 715 mmHg 76%
    12:00 -1°C° 0 mm 2 mps 714 mmHg 73%
    13:00 +1°C° 0 mm 2 mps 714 mmHg 71%
    14:00 +1°C° 0 mm 1 mps 714 mmHg 73%
    15:00 +1°C° 0 mm 1 mps 714 mmHg 76%
    16:00 0°C° 0 mm 1 mps 714 mmHg 79%
    17:00 0°C° 0 mm 1 mps 714 mmHg 81%
    18:00 -1°C° 0 mm 1 mps 714 mmHg 82%
    19:00 -1°C° 0 mm 1 mps 714 mmHg 84%
    20:00 -1°C° 0 mm 1 mps 714 mmHg 85%
    21:00 -2°C° 0 mm 1 mps 714 mmHg 86%
    22:00 -2°C° 0 mm 1 mps 713 mmHg 87%
    23:00 -2°C° 0 mm 1 mps 713 mmHg 87%

    28 November, Tuesday

    Time Temperature Precipitation Wind Pressure Humidity
    00:00 -2°C° 0 mm 1 mps 713 mmHg 87%
    01:00 -2°C° 0 mm 1 mps 713 mmHg 87%
    02:00 -3°C° 0 mm 1 mps 713 mmHg 87%
    03:00 -3°C° 0 mm 1 mps 712 mmHg 87%
    04:00 -3°C° 0 mm 1 mps 712 mmHg 87%
    05:00 -3°C° 0 mm 1 mps 712 mmHg 86%
    06:00 -3°C° 0 mm 1 mps 712 mmHg 85%
    07:00 -3°C° 0 mm 1 mps 712 mmHg 84%
    08:00 -2°C° 0 mm 1 mps 712 mmHg 79%
    09:00 0°C° 0 mm 1 mps 712 mmHg 73%
    10:00 -1°C° 0 mm 2 mps 712 mmHg 68%
    11:00 +1°C° 0 mm 2 mps 712 mmHg 66%
    12:00 +1°C° 0 mm 2 mps 711 mmHg 63%
    13:00 +2°C° 0 mm 2 mps 711 mmHg 61%
    14:00 +1°C° 0 mm 2 mps 711 mmHg 66%
    15:00 -1°C° 0 mm 2 mps 710 mmHg 72%
    16:00 -3°C° 0 mm 2 mps 710 mmHg 77%
    17:00 -3°C° 0 mm 2 mps 710 mmHg 78%
    18:00 -3°C° 0 mm 2 mps 710 mmHg 79%
    19:00 -4°C° 0 mm 2 mps 709 mmHg 80%
    20:00 -4°C° 0 mm 2 mps 709 mmHg 79%
    21:00 -4°C° 0 mm 2 mps 709 mmHg 78%
    22:00 -4°C° 0 mm 2 mps 709 mmHg 77%
    23:00 -4°C° 0 mm 2 mps 709 mmHg 76%
    Show more